カタログに戻る

STARLINK-11495

運用中通信VLEO
NORAD 62275·PAYLOAD·🇺🇸 United States

打ち上げ Dec 8, 2024 から Cape Canaveral Space Force Station

Loading…

次のパス (今後24時間)

TLE

最新Source: CelesTrak SupGP

元期: Sep 14, 2026, 21:26 UTC

1 62275C 24237J   26257.89354167 -.00006390  00000+0 -49593-4 0  2575
2 62275  43.0007 356.7854 0001735 266.4728  36.0148 15.70859267    10

AllMySatでSTARLINK-11495をリアルタイム追跡

Download on the App Store